Year,Month,Day,Hour,Minute,Value (Times are PST for temperature in C)
2018,09,27,00,00,11.30
2018,09,27,00,01,11.40
2018,09,27,00,02,11.40
2018,09,27,00,03,11.50
2018,09,27,00,04,11.60
2018,09,27,00,05,11.60
2018,09,27,00,06,11.60
2018,09,27,00,07,11.60
2018,09,27,00,08,11.60
2018,09,27,00,09,11.60
2018,09,27,00,10,11.60
2018,09,27,00,11,11.50
2018,09,27,00,12,11.50
2018,09,27,00,13,11.50
2018,09,27,00,14,11.40
2018,09,27,00,15,11.40
2018,09,27,00,16,11.40
2018,09,27,00,17,11.40
2018,09,27,00,18,11.40
2018,09,27,00,19,11.30
2018,09,27,00,20,11.30
2018,09,27,00,21,11.30
2018,09,27,00,22,11.30
2018,09,27,00,23,11.30
2018,09,27,00,24,11.30
2018,09,27,00,25,11.40
2018,09,27,00,26,11.40
2018,09,27,00,27,11.40
2018,09,27,00,28,11.40
2018,09,27,00,29,11.40
2018,09,27,00,30,11.40
2018,09,27,00,31,11.40
2018,09,27,00,32,11.50
2018,09,27,00,33,11.50
2018,09,27,00,34,11.50
2018,09,27,00,35,11.60
2018,09,27,00,36,11.60
2018,09,27,00,37,11.60
2018,09,27,00,38,11.60
2018,09,27,00,39,11.60
2018,09,27,00,40,11.50
2018,09,27,00,41,11.50
2018,09,27,00,42,11.50
2018,09,27,00,43,11.50
2018,09,27,00,44,11.50
2018,09,27,00,45,11.50
2018,09,27,00,46,11.50
2018,09,27,00,47,11.50
2018,09,27,00,48,11.40
2018,09,27,00,49,11.50
2018,09,27,00,50,11.40
2018,09,27,00,51,11.40
2018,09,27,00,52,11.40
2018,09,27,00,53,11.40
2018,09,27,00,54,11.40
2018,09,27,00,55,11.40
2018,09,27,00,56,11.40
2018,09,27,00,57,11.40
2018,09,27,00,58,11.40
2018,09,27,00,59,11.40
2018,09,27,01,00,11.40
2018,09,27,01,01,11.40
2018,09,27,01,02,11.40
2018,09,27,01,03,11.40
2018,09,27,01,04,11.40
2018,09,27,01,05,11.40
2018,09,27,01,06,11.40
2018,09,27,01,07,11.40
2018,09,27,01,08,11.40
2018,09,27,01,09,11.40
2018,09,27,01,10,11.30
2018,09,27,01,11,11.30
2018,09,27,01,12,11.30
2018,09,27,01,13,11.30
2018,09,27,01,14,11.30
2018,09,27,01,15,11.30
2018,09,27,01,16,11.30
2018,09,27,01,17,11.30
2018,09,27,01,18,11.20
2018,09,27,01,19,11.20
2018,09,27,01,20,11.20
2018,09,27,01,21,11.20
2018,09,27,01,22,11.20
2018,09,27,01,23,11.20
2018,09,27,01,24,11.30
2018,09,27,01,25,11.30
2018,09,27,01,26,11.30
2018,09,27,01,27,11.30
2018,09,27,01,28,11.30
2018,09,27,01,29,11.30
2018,09,27,01,30,11.30
2018,09,27,01,31,11.30
2018,09,27,01,32,11.30
2018,09,27,01,33,11.20
2018,09,27,01,34,11.20
2018,09,27,01,35,11.20
2018,09,27,01,36,11.20
2018,09,27,01,37,11.20
2018,09,27,01,38,11.20
2018,09,27,01,39,11.20
2018,09,27,01,40,11.20
2018,09,27,01,41,11.20
2018,09,27,01,42,11.20
2018,09,27,01,43,11.20
2018,09,27,01,44,11.20
2018,09,27,01,45,11.20
2018,09,27,01,46,11.20
2018,09,27,01,47,11.20
2018,09,27,01,48,11.20
2018,09,27,01,49,11.20
2018,09,27,01,50,11.20
2018,09,27,01,51,11.20
2018,09,27,01,52,11.20
2018,09,27,01,53,11.20
2018,09,27,01,54,11.20
2018,09,27,01,55,11.20
2018,09,27,01,56,11.20
2018,09,27,01,57,11.30
2018,09,27,01,58,11.30
2018,09,27,01,59,11.30
2018,09,27,02,00,11.30
2018,09,27,02,01,11.30
2018,09,27,02,02,11.30
2018,09,27,02,03,11.20
2018,09,27,02,04,11.20
2018,09,27,02,05,11.20
2018,09,27,02,06,11.20
2018,09,27,02,07,11.20
2018,09,27,02,08,11.20
2018,09,27,02,09,11.20
2018,09,27,02,10,11.10
2018,09,27,02,11,11.10
2018,09,27,02,12,11.10
2018,09,27,02,13,11.10
2018,09,27,02,14,11.10
2018,09,27,02,15,11.10
2018,09,27,02,16,11.10
2018,09,27,02,17,11.10
2018,09,27,02,18,11.10
2018,09,27,02,19,11.10
2018,09,27,02,20,11.10
2018,09,27,02,21,11.10
2018,09,27,02,22,11.10
2018,09,27,02,23,11.10
2018,09,27,02,24,11.10
2018,09,27,02,25,11.10
2018,09,27,02,26,11.10
2018,09,27,02,27,11.10
2018,09,27,02,28,11.10
2018,09,27,02,29,11.10
2018,09,27,02,30,11.10
2018,09,27,02,31,11.10
2018,09,27,02,32,11.20
2018,09,27,02,33,11.20
2018,09,27,02,34,11.20
2018,09,27,02,35,11.30
2018,09,27,02,36,11.20
2018,09,27,02,37,11.20
2018,09,27,02,38,11.20
2018,09,27,02,39,11.20
2018,09,27,02,40,11.20
2018,09,27,02,41,11.20
2018,09,27,02,42,11.20
2018,09,27,02,43,11.20
2018,09,27,02,44,11.20
2018,09,27,02,45,11.20
2018,09,27,02,46,11.10
2018,09,27,02,47,11.10
2018,09,27,02,48,11.10
2018,09,27,02,49,11.10
2018,09,27,02,50,11.10
2018,09,27,02,51,11.10
2018,09,27,02,52,11.10
2018,09,27,02,53,11.00
2018,09,27,02,54,11.00
2018,09,27,02,55,11.00
2018,09,27,02,56,11.00
2018,09,27,02,57,10.90
2018,09,27,02,58,10.90
2018,09,27,02,59,10.90
2018,09,27,03,00,10.90
2018,09,27,03,01,10.90
2018,09,27,03,02,10.90
2018,09,27,03,03,10.90
2018,09,27,03,04,10.90
2018,09,27,03,05,10.90
2018,09,27,03,06,10.90
2018,09,27,03,07,10.90
2018,09,27,03,08,10.90
2018,09,27,03,09,10.90
2018,09,27,03,10,10.90
2018,09,27,03,11,10.90
2018,09,27,03,12,10.90
2018,09,27,03,13,10.90
2018,09,27,03,14,10.90
2018,09,27,03,15,10.90
2018,09,27,03,16,10.90
2018,09,27,03,17,10.90
2018,09,27,03,18,10.90
2018,09,27,03,19,10.90
2018,09,27,03,20,10.90
2018,09,27,03,21,10.80
2018,09,27,03,22,10.90
2018,09,27,03,23,10.80
2018,09,27,03,24,10.80
2018,09,27,03,25,10.80
2018,09,27,03,26,10.80
2018,09,27,03,27,10.80
2018,09,27,03,28,10.80
2018,09,27,03,29,10.80
2018,09,27,03,30,10.80
2018,09,27,03,31,10.80
2018,09,27,03,32,10.80
2018,09,27,03,33,10.80
2018,09,27,03,34,10.80
2018,09,27,03,35,10.80
2018,09,27,03,36,10.80
2018,09,27,03,37,10.80
2018,09,27,03,38,10.80
2018,09,27,03,39,10.80
2018,09,27,03,40,10.80
2018,09,27,03,41,10.80
2018,09,27,03,42,10.80
2018,09,27,03,43,10.70
2018,09,27,03,44,10.70
2018,09,27,03,45,10.70
2018,09,27,03,46,10.70
2018,09,27,03,47,10.70
2018,09,27,03,48,10.70
2018,09,27,03,49,10.70
2018,09,27,03,50,10.70
2018,09,27,03,51,10.70
2018,09,27,03,52,10.70
2018,09,27,03,53,10.60
2018,09,27,03,54,10.60
2018,09,27,03,55,10.60
2018,09,27,03,56,10.60
2018,09,27,03,57,10.60
2018,09,27,03,58,10.60
2018,09,27,03,59,10.60
2018,09,27,04,00,10.50
2018,09,27,04,01,10.50
2018,09,27,04,02,10.50
2018,09,27,04,03,10.50
2018,09,27,04,04,10.50
2018,09,27,04,05,10.50
2018,09,27,04,06,10.50
2018,09,27,04,07,10.50
2018,09,27,04,08,10.50
2018,09,27,04,09,10.50
2018,09,27,04,10,10.50
2018,09,27,04,11,10.50
2018,09,27,04,12,10.50
2018,09,27,04,13,10.50
2018,09,27,04,14,10.50
2018,09,27,04,15,10.50
2018,09,27,04,16,10.40
2018,09,27,04,17,10.40
2018,09,27,04,18,10.40
2018,09,27,04,19,10.40
2018,09,27,04,20,10.40
2018,09,27,04,21,10.40
2018,09,27,04,22,10.30
2018,09,27,04,23,10.30
2018,09,27,04,24,10.30
2018,09,27,04,25,10.30
2018,09,27,04,26,10.30
2018,09,27,04,27,10.30
2018,09,27,04,28,10.30
2018,09,27,04,29,10.20
2018,09,27,04,30,10.20
2018,09,27,04,31,10.20
2018,09,27,04,32,10.20
2018,09,27,04,33,10.20
2018,09,27,04,34,10.20
2018,09,27,04,35,10.10
2018,09,27,04,36,10.20
2018,09,27,04,37,10.10
2018,09,27,04,38,10.20
2018,09,27,04,39,10.20
2018,09,27,04,40,10.20
2018,09,27,04,41,10.20
2018,09,27,04,42,10.20
2018,09,27,04,43,10.20
2018,09,27,04,44,10.30
2018,09,27,04,45,10.30
2018,09,27,04,46,10.30
2018,09,27,04,47,10.30
2018,09,27,04,48,10.20
2018,09,27,04,49,10.30
2018,09,27,04,50,10.30
2018,09,27,04,51,10.30
2018,09,27,04,52,10.30
2018,09,27,04,53,10.30
2018,09,27,04,54,10.30
2018,09,27,04,55,10.30
2018,09,27,04,56,10.30
2018,09,27,04,57,10.20
2018,09,27,04,58,10.20
2018,09,27,04,59,10.20
2018,09,27,05,00,10.20
2018,09,27,05,01,10.20
2018,09,27,05,02,10.20
2018,09,27,05,03,10.20
2018,09,27,05,04,10.20
2018,09,27,05,05,10.20
2018,09,27,05,06,10.20
2018,09,27,05,07,10.20
2018,09,27,05,08,10.20
2018,09,27,05,09,10.20
2018,09,27,05,10,10.20
2018,09,27,05,11,10.20
2018,09,27,05,12,10.20
2018,09,27,05,13,10.10
2018,09,27,05,14,10.10
2018,09,27,05,15,10.10
2018,09,27,05,16,10.10
2018,09,27,05,17,10.10
2018,09,27,05,18,10.00
2018,09,27,05,19,10.00
2018,09,27,05,20,10.00
2018,09,27,05,21,10.00
2018,09,27,05,22,10.00
2018,09,27,05,23,10.00
2018,09,27,05,24,10.00
2018,09,27,05,25,9.90
2018,09,27,05,26,9.90
2018,09,27,05,27,9.90
2018,09,27,05,28,9.90
2018,09,27,05,29,10.00
2018,09,27,05,30,10.00
2018,09,27,05,31,10.00
2018,09,27,05,32,10.00
2018,09,27,05,33,10.00
2018,09,27,05,34,10.10
2018,09,27,05,35,10.10
2018,09,27,05,36,10.10
2018,09,27,05,37,10.10
2018,09,27,05,38,10.10
2018,09,27,05,39,10.10
2018,09,27,05,40,10.10
2018,09,27,05,41,10.20
2018,09,27,05,42,10.20
2018,09,27,05,43,10.10
2018,09,27,05,44,10.20
2018,09,27,05,45,10.10
2018,09,27,05,46,10.10
2018,09,27,05,47,10.10
2018,09,27,05,48,10.10
2018,09,27,05,49,10.10
2018,09,27,05,50,10.10
2018,09,27,05,51,10.00
2018,09,27,05,52,10.00
2018,09,27,05,53,10.00
2018,09,27,05,54,10.00
2018,09,27,05,55,10.00
2018,09,27,05,56,10.00
2018,09,27,05,57,10.00
2018,09,27,05,58,10.00
2018,09,27,05,59,10.00
2018,09,27,06,00,10.00
2018,09,27,06,01,9.90
2018,09,27,06,02,9.90
2018,09,27,06,03,9.90
2018,09,27,06,04,9.90
2018,09,27,06,05,9.90
2018,09,27,06,06,9.90
2018,09,27,06,07,9.90
2018,09,27,06,08,9.90
2018,09,27,06,09,9.90
2018,09,27,06,10,9.90
2018,09,27,06,11,9.90
2018,09,27,06,12,9.90
2018,09,27,06,13,9.90
2018,09,27,06,14,9.90
2018,09,27,06,15,9.90
2018,09,27,06,16,9.90
2018,09,27,06,17,9.90
2018,09,27,06,18,9.90
2018,09,27,06,19,9.90
2018,09,27,06,20,9.90
2018,09,27,06,21,10.00
2018,09,27,06,22,9.90
2018,09,27,06,23,10.00
2018,09,27,06,24,9.90
2018,09,27,06,25,9.90
2018,09,27,06,26,9.90
2018,09,27,06,27,9.90
2018,09,27,06,28,9.90
2018,09,27,06,29,9.90
2018,09,27,06,30,9.90
2018,09,27,06,31,9.80
2018,09,27,06,32,9.80
2018,09,27,06,33,9.80
2018,09,27,06,34,9.90
2018,09,27,06,35,9.90
2018,09,27,06,36,9.90
2018,09,27,06,37,10.00
2018,09,27,06,38,10.00
2018,09,27,06,39,9.90
2018,09,27,06,40,9.90
2018,09,27,06,41,9.90
2018,09,27,06,42,9.90
2018,09,27,06,43,9.90
2018,09,27,06,44,9.90
2018,09,27,06,45,9.90
2018,09,27,06,46,9.80
2018,09,27,06,47,9.80
2018,09,27,06,48,9.80
2018,09,27,06,49,9.80
2018,09,27,06,50,9.80
2018,09,27,06,51,9.80
2018,09,27,06,52,9.80
2018,09,27,06,53,9.80
2018,09,27,06,54,9.80
2018,09,27,06,55,9.80
2018,09,27,06,56,9.80
2018,09,27,06,57,9.80
2018,09,27,06,58,9.70
2018,09,27,06,59,9.70
2018,09,27,07,00,9.70
2018,09,27,07,01,9.70
2018,09,27,07,02,9.60
2018,09,27,07,03,9.60
2018,09,27,07,04,9.60
2018,09,27,07,05,9.60
2018,09,27,07,06,9.60
2018,09,27,07,07,9.60
2018,09,27,07,08,9.60
2018,09,27,07,09,9.60
2018,09,27,07,10,9.60
2018,09,27,07,11,9.60
2018,09,27,07,12,9.70
2018,09,27,07,13,9.70
2018,09,27,07,14,9.70
2018,09,27,07,15,9.70
2018,09,27,07,16,9.70
2018,09,27,07,17,9.70
2018,09,27,07,18,9.80
2018,09,27,07,19,9.80
2018,09,27,07,20,9.80
2018,09,27,07,21,9.80
2018,09,27,07,22,9.80
2018,09,27,07,23,9.80
2018,09,27,07,24,9.80
2018,09,27,07,25,9.80
2018,09,27,07,26,9.80
2018,09,27,07,27,9.80
2018,09,27,07,28,9.80
2018,09,27,07,29,9.80
2018,09,27,07,30,9.80
2018,09,27,07,31,9.80
2018,09,27,07,32,9.80
2018,09,27,07,33,9.80
2018,09,27,07,34,9.80
2018,09,27,07,35,9.80
2018,09,27,07,36,9.80
2018,09,27,07,37,9.80
2018,09,27,07,38,9.80
2018,09,27,07,39,9.80
2018,09,27,07,40,9.80
2018,09,27,07,41,9.80
2018,09,27,07,42,9.80
2018,09,27,07,43,9.70
2018,09,27,07,44,9.70
2018,09,27,07,45,9.70
2018,09,27,07,46,9.60
2018,09,27,07,47,9.60
2018,09,27,07,48,9.50
2018,09,27,07,49,9.50
2018,09,27,07,50,9.50
2018,09,27,07,51,9.40
2018,09,27,07,52,9.40
2018,09,27,07,53,9.40
2018,09,27,07,54,9.40
2018,09,27,07,55,9.40
2018,09,27,07,56,9.40
2018,09,27,07,57,9.40
2018,09,27,07,58,9.40
2018,09,27,07,59,9.40
2018,09,27,08,00,9.50
2018,09,27,08,01,9.50
2018,09,27,08,02,9.50
2018,09,27,08,03,9.50
2018,09,27,08,04,9.60
2018,09,27,08,05,9.60
2018,09,27,08,06,9.60
2018,09,27,08,07,9.60
2018,09,27,08,08,9.60
2018,09,27,08,09,9.70
2018,09,27,08,10,9.70
2018,09,27,08,11,9.70
2018,09,27,08,12,9.70
2018,09,27,08,13,9.70
2018,09,27,08,14,9.70
2018,09,27,08,15,9.70
2018,09,27,08,16,9.80
2018,09,27,08,17,9.80
2018,09,27,08,18,9.80
2018,09,27,08,19,9.80
2018,09,27,08,20,9.80
2018,09,27,08,21,9.80
2018,09,27,08,22,9.80
2018,09,27,08,23,9.90
2018,09,27,08,24,9.90
2018,09,27,08,25,9.90
2018,09,27,08,26,10.00
2018,09,27,08,27,10.00
2018,09,27,08,28,10.10
2018,09,27,08,29,10.10
2018,09,27,08,30,10.10
2018,09,27,08,31,10.20
2018,09,27,08,32,10.20
2018,09,27,08,33,10.30
2018,09,27,08,34,10.30
2018,09,27,08,35,10.30
2018,09,27,08,36,10.40
2018,09,27,08,37,10.40
2018,09,27,08,38,10.40
2018,09,27,08,39,10.40
2018,09,27,08,40,10.40
2018,09,27,08,41,10.50
2018,09,27,08,42,10.50
2018,09,27,08,43,10.50
2018,09,27,08,44,10.60
2018,09,27,08,45,10.60
2018,09,27,08,46,10.60
2018,09,27,08,47,10.70
2018,09,27,08,48,10.80
2018,09,27,08,49,10.80
2018,09,27,08,50,10.90
2018,09,27,08,51,11.00
2018,09,27,08,52,11.10
2018,09,27,08,53,11.20
2018,09,27,08,54,11.30
2018,09,27,08,55,11.40
2018,09,27,08,56,11.50
2018,09,27,08,57,11.60
2018,09,27,08,58,11.70
2018,09,27,08,59,11.80
2018,09,27,09,00,11.90
2018,09,27,09,01,11.90
2018,09,27,09,02,12.00
2018,09,27,09,03,12.10
2018,09,27,09,04,12.20
2018,09,27,09,05,12.30
2018,09,27,09,06,12.40
2018,09,27,09,07,12.40
2018,09,27,09,08,12.50
2018,09,27,09,09,12.60
2018,09,27,09,10,12.70
2018,09,27,09,11,12.80
2018,09,27,09,12,12.90
2018,09,27,09,13,12.90
2018,09,27,09,14,13.00
2018,09,27,09,15,13.10
2018,09,27,09,16,13.10
2018,09,27,09,17,13.20
2018,09,27,09,18,13.20
2018,09,27,09,19,13.30
2018,09,27,09,20,13.40
2018,09,27,09,21,13.40
2018,09,27,09,22,13.50
2018,09,27,09,23,13.60
2018,09,27,09,24,13.70
2018,09,27,09,25,13.70
2018,09,27,09,26,13.80
2018,09,27,09,27,13.90
2018,09,27,09,28,14.10
2018,09,27,09,29,14.20
2018,09,27,09,30,14.30
2018,09,27,09,31,14.40
2018,09,27,09,32,14.50
2018,09,27,09,33,14.50
2018,09,27,09,34,14.60
2018,09,27,09,35,14.70
2018,09,27,09,36,14.80
2018,09,27,09,37,14.90
2018,09,27,09,38,15.00
2018,09,27,09,39,15.10
2018,09,27,09,40,15.10
2018,09,27,09,41,15.20
2018,09,27,09,42,15.30
2018,09,27,09,43,15.40
2018,09,27,09,44,15.40
2018,09,27,09,45,15.50
2018,09,27,09,46,15.50
2018,09,27,09,47,15.60
2018,09,27,09,48,15.70
2018,09,27,09,49,15.70
2018,09,27,09,50,15.80
2018,09,27,09,51,15.90
2018,09,27,09,52,16.00
2018,09,27,09,53,16.10
2018,09,27,09,54,16.20
2018,09,27,09,55,16.20
2018,09,27,09,56,16.30
2018,09,27,09,57,16.30
2018,09,27,09,58,16.30
2018,09,27,09,59,16.30
2018,09,27,10,00,16.30
2018,09,27,10,01,16.30
2018,09,27,10,02,16.20
2018,09,27,10,03,16.10
2018,09,27,10,04,16.10
2018,09,27,10,05,16.10
2018,09,27,10,06,16.10
2018,09,27,10,07,16.20
2018,09,27,10,08,16.20
2018,09,27,10,09,16.20
2018,09,27,10,10,16.20
2018,09,27,10,11,16.20
2018,09,27,10,12,16.20
2018,09,27,10,13,16.30
2018,09,27,10,14,16.30
2018,09,27,10,15,16.40
2018,09,27,10,16,16.50
2018,09,27,10,17,16.60
2018,09,27,10,18,16.70
2018,09,27,10,19,16.70
2018,09,27,10,20,16.80
2018,09,27,10,21,16.80
2018,09,27,10,22,16.80
2018,09,27,10,23,16.90
2018,09,27,10,24,16.90
2018,09,27,10,25,16.90
2018,09,27,10,26,17.00
2018,09,27,10,27,17.00
2018,09,27,10,28,17.00
2018,09,27,10,29,16.90
2018,09,27,10,30,16.80
2018,09,27,10,31,16.80
2018,09,27,10,32,16.70
2018,09,27,10,33,16.70
2018,09,27,10,34,16.70
2018,09,27,10,35,16.80
2018,09,27,10,36,16.80
2018,09,27,10,37,16.80
2018,09,27,10,38,16.80
2018,09,27,10,39,16.90
2018,09,27,10,40,16.90
2018,09,27,10,41,16.90
2018,09,27,10,42,17.00
2018,09,27,10,43,17.10
2018,09,27,10,44,17.10
2018,09,27,10,45,17.20
2018,09,27,10,46,17.30
2018,09,27,10,47,17.30
2018,09,27,10,48,17.40
2018,09,27,10,49,17.40
2018,09,27,10,50,17.50
2018,09,27,10,51,17.50
2018,09,27,10,52,17.60
2018,09,27,10,53,17.70
2018,09,27,10,54,17.80
2018,09,27,10,55,17.80
2018,09,27,10,56,17.90
2018,09,27,10,57,17.90
2018,09,27,10,58,17.90
2018,09,27,10,59,18.00
2018,09,27,11,00,18.00
2018,09,27,11,01,18.10
2018,09,27,11,02,18.10
2018,09,27,11,03,18.10
2018,09,27,11,04,18.10
2018,09,27,11,05,18.20
2018,09,27,11,06,18.30
2018,09,27,11,07,18.30
2018,09,27,11,08,18.40
2018,09,27,11,09,18.40
2018,09,27,11,10,18.40
2018,09,27,11,11,18.30
2018,09,27,11,12,18.30
2018,09,27,11,13,18.30
2018,09,27,11,14,18.20
2018,09,27,11,15,18.20
2018,09,27,11,16,18.20
2018,09,27,11,17,18.20
2018,09,27,11,18,18.20
2018,09,27,11,19,18.30
2018,09,27,11,20,18.40
2018,09,27,11,21,18.40
2018,09,27,11,22,18.40
2018,09,27,11,23,18.30
2018,09,27,11,24,18.40
2018,09,27,11,25,18.40
2018,09,27,11,26,18.50
2018,09,27,11,27,18.50
2018,09,27,11,28,18.50
2018,09,27,11,29,18.50
2018,09,27,11,30,18.50
2018,09,27,11,31,18.60
2018,09,27,11,32,18.60
2018,09,27,11,33,18.70
2018,09,27,11,34,18.70
2018,09,27,11,35,18.60
2018,09,27,11,36,18.60
2018,09,27,11,37,18.60
2018,09,27,11,38,18.60
2018,09,27,11,39,18.60
2018,09,27,11,40,18.60
2018,09,27,11,41,18.60
2018,09,27,11,42,18.60
2018,09,27,11,43,18.60
2018,09,27,11,44,18.50
2018,09,27,11,45,18.40
2018,09,27,11,46,18.40
2018,09,27,11,47,18.40
2018,09,27,11,48,18.50
2018,09,27,11,49,18.60
2018,09,27,11,50,18.70
2018,09,27,11,51,18.70
2018,09,27,11,52,18.70
2018,09,27,11,53,18.80
2018,09,27,11,54,18.80
2018,09,27,11,55,18.90
2018,09,27,11,56,19.00
2018,09,27,11,57,19.00
2018,09,27,11,58,19.10
2018,09,27,11,59,19.10
2018,09,27,12,00,19.20
2018,09,27,12,01,19.30
2018,09,27,12,02,19.30
2018,09,27,12,03,19.30
2018,09,27,12,04,19.40
2018,09,27,12,05,19.40
2018,09,27,12,06,19.40
2018,09,27,12,07,19.40
2018,09,27,12,08,19.40
2018,09,27,12,09,19.50
2018,09,27,12,10,19.50
2018,09,27,12,11,19.50
2018,09,27,12,12,19.60
2018,09,27,12,13,19.60
2018,09,27,12,14,19.60
2018,09,27,12,15,19.70
2018,09,27,12,16,19.70
2018,09,27,12,17,19.70
2018,09,27,12,18,19.70
2018,09,27,12,19,19.70
2018,09,27,12,20,19.70
2018,09,27,12,21,19.60
2018,09,27,12,22,19.60
2018,09,27,12,23,19.60
2018,09,27,12,24,19.70
2018,09,27,12,25,19.70
2018,09,27,12,26,19.80
2018,09,27,12,27,19.90
2018,09,27,12,28,19.90
2018,09,27,12,29,20.00
2018,09,27,12,30,20.00
2018,09,27,12,31,20.00
2018,09,27,12,32,20.10
2018,09,27,12,33,20.10
2018,09,27,12,34,20.10
2018,09,27,12,35,20.20
2018,09,27,12,36,20.20
2018,09,27,12,37,20.20
2018,09,27,12,38,20.30
2018,09,27,12,39,20.40
2018,09,27,12,40,20.40
2018,09,27,12,41,20.40
2018,09,27,12,42,20.50
2018,09,27,12,43,20.60
2018,09,27,12,44,20.60
2018,09,27,12,45,20.60
2018,09,27,12,46,20.60
2018,09,27,12,47,20.60
2018,09,27,12,48,20.60
2018,09,27,12,49,20.60
2018,09,27,12,50,20.60
2018,09,27,12,51,20.60
2018,09,27,12,52,20.60
2018,09,27,12,53,20.60
2018,09,27,12,54,20.60
2018,09,27,12,55,20.60
2018,09,27,12,56,20.70
2018,09,27,12,57,20.70
2018,09,27,12,58,20.80
2018,09,27,12,59,20.80
2018,09,27,13,00,20.80
2018,09,27,13,01,20.80
2018,09,27,13,02,20.90
2018,09,27,13,03,20.90
2018,09,27,13,04,21.00
2018,09,27,13,05,21.00
2018,09,27,13,06,21.00
2018,09,27,13,07,21.00
2018,09,27,13,08,21.00
2018,09,27,13,09,21.00
2018,09,27,13,10,21.10
2018,09,27,13,11,21.10
2018,09,27,13,12,21.10
2018,09,27,13,13,21.20
2018,09,27,13,14,21.20
2018,09,27,13,15,21.30
2018,09,27,13,16,21.30
2018,09,27,13,17,21.30
2018,09,27,13,18,21.30
2018,09,27,13,19,21.30
2018,09,27,13,20,21.30
2018,09,27,13,21,21.30
2018,09,27,13,22,21.30
2018,09,27,13,23,21.30
2018,09,27,13,24,21.30
2018,09,27,13,25,21.40
2018,09,27,13,26,21.50
2018,09,27,13,27,21.60
2018,09,27,13,28,21.50
2018,09,27,13,29,21.40
2018,09,27,13,30,21.40
2018,09,27,13,31,21.30
2018,09,27,13,32,21.40
2018,09,27,13,33,21.40
2018,09,27,13,34,21.40
2018,09,27,13,35,21.40
2018,09,27,13,36,21.30
2018,09,27,13,37,21.30
2018,09,27,13,38,21.30
2018,09,27,13,39,21.30
2018,09,27,13,40,21.40
2018,09,27,13,41,21.40
2018,09,27,13,42,21.40
2018,09,27,13,43,21.50
2018,09,27,13,44,21.50
2018,09,27,13,45,21.60
2018,09,27,13,46,21.60
2018,09,27,13,47,21.60
2018,09,27,13,48,21.60
2018,09,27,13,49,21.70
2018,09,27,13,50,21.70
2018,09,27,13,51,21.70
2018,09,27,13,52,21.80
2018,09,27,13,53,21.80
2018,09,27,13,54,21.90
2018,09,27,13,55,21.90
2018,09,27,13,56,21.90
2018,09,27,13,57,21.90
2018,09,27,13,58,21.80
2018,09,27,13,59,21.80
2018,09,27,14,00,21.80
2018,09,27,14,01,21.80
2018,09,27,14,02,21.80
2018,09,27,14,03,21.90
2018,09,27,14,04,21.90
2018,09,27,14,05,21.90
2018,09,27,14,06,22.00
2018,09,27,14,07,22.00
2018,09,27,14,08,22.00
2018,09,27,14,09,22.10
2018,09,27,14,10,22.10
2018,09,27,14,11,22.10
2018,09,27,14,12,22.10
2018,09,27,14,13,22.00
2018,09,27,14,14,21.90
2018,09,27,14,15,21.80
2018,09,27,14,16,21.80
2018,09,27,14,17,21.80
2018,09,27,14,18,21.80
2018,09,27,14,19,21.80
2018,09,27,14,20,21.80
2018,09,27,14,21,21.90
2018,09,27,14,22,21.90
2018,09,27,14,23,21.90
2018,09,27,14,24,22.00
2018,09,27,14,25,22.00
2018,09,27,14,26,22.00
2018,09,27,14,27,22.00
2018,09,27,14,28,22.00
2018,09,27,14,29,22.00
2018,09,27,14,30,21.90
2018,09,27,14,31,21.80
2018,09,27,14,32,21.80
2018,09,27,14,33,21.80
2018,09,27,14,34,21.80
2018,09,27,14,35,21.90
2018,09,27,14,36,21.90
2018,09,27,14,37,22.00
2018,09,27,14,38,22.10
2018,09,27,14,39,22.20
2018,09,27,14,40,22.30
2018,09,27,14,41,22.30
2018,09,27,14,42,22.40
2018,09,27,14,43,22.50
2018,09,27,14,44,22.60
2018,09,27,14,45,22.60
2018,09,27,14,46,22.70
2018,09,27,14,47,22.70
2018,09,27,14,48,22.70
2018,09,27,14,49,22.70
2018,09,27,14,50,22.70
2018,09,27,14,51,22.70
2018,09,27,14,52,22.70
2018,09,27,14,53,22.80
2018,09,27,14,54,22.80
2018,09,27,14,55,22.80
2018,09,27,14,56,22.70
2018,09,27,14,57,22.70
2018,09,27,14,58,22.70
2018,09,27,14,59,22.70
2018,09,27,15,00,22.70
2018,09,27,15,01,22.80
2018,09,27,15,02,22.90
2018,09,27,15,03,22.90
2018,09,27,15,04,23.00
2018,09,27,15,05,23.00
2018,09,27,15,06,23.00
2018,09,27,15,07,23.10
2018,09,27,15,08,23.10
2018,09,27,15,09,23.10
2018,09,27,15,10,23.20
2018,09,27,15,11,23.20
2018,09,27,15,12,23.20
2018,09,27,15,13,23.20
2018,09,27,15,14,23.10
2018,09,27,15,15,23.00
2018,09,27,15,16,22.90
2018,09,27,15,17,22.90
2018,09,27,15,18,22.90
2018,09,27,15,19,22.70
2018,09,27,15,20,22.70
2018,09,27,15,21,22.70
2018,09,27,15,22,22.70
2018,09,27,15,23,22.70
2018,09,27,15,24,22.80
2018,09,27,15,25,22.90
2018,09,27,15,26,23.00
2018,09,27,15,27,23.00
2018,09,27,15,28,23.10
2018,09,27,15,29,23.10
2018,09,27,15,30,23.10
2018,09,27,15,31,23.20
2018,09,27,15,32,23.20
2018,09,27,15,33,23.20
2018,09,27,15,34,23.20
2018,09,27,15,35,23.20
2018,09,27,15,36,23.20
2018,09,27,15,37,23.30
2018,09,27,15,38,23.30
2018,09,27,15,39,23.30
2018,09,27,15,40,23.40
2018,09,27,15,41,23.40
2018,09,27,15,42,23.40
2018,09,27,15,43,23.40
2018,09,27,15,44,23.40
2018,09,27,15,45,23.40
2018,09,27,15,46,23.40
2018,09,27,15,47,23.30
2018,09,27,15,48,23.30
2018,09,27,15,49,23.30
2018,09,27,15,50,23.30
2018,09,27,15,51,23.30
2018,09,27,15,52,23.20
2018,09,27,15,53,23.20
2018,09,27,15,54,23.20
2018,09,27,15,55,23.30
2018,09,27,15,56,23.30
2018,09,27,15,57,23.30
2018,09,27,15,58,23.30
2018,09,27,15,59,23.20
2018,09,27,16,00,23.20
2018,09,27,16,01,23.20
2018,09,27,16,02,23.20
2018,09,27,16,03,23.20
2018,09,27,16,04,23.20
2018,09,27,16,05,23.20
2018,09,27,16,06,23.20
2018,09,27,16,07,23.10
2018,09,27,16,08,23.10
2018,09,27,16,09,23.10
2018,09,27,16,10,23.00
2018,09,27,16,11,23.00
2018,09,27,16,12,23.00
2018,09,27,16,13,23.00
2018,09,27,16,14,22.90
2018,09,27,16,15,22.90
2018,09,27,16,16,22.90
2018,09,27,16,17,22.80
2018,09,27,16,18,22.80
2018,09,27,16,19,22.80
2018,09,27,16,20,22.80
2018,09,27,16,21,22.80
2018,09,27,16,22,22.80
2018,09,27,16,23,22.80
2018,09,27,16,24,22.70
2018,09,27,16,25,22.70
2018,09,27,16,26,22.70
2018,09,27,16,27,22.70
2018,09,27,16,28,22.80
2018,09,27,16,29,22.80
2018,09,27,16,30,22.80
2018,09,27,16,31,22.80
2018,09,27,16,32,22.70
2018,09,27,16,33,22.60
2018,09,27,16,34,22.60
2018,09,27,16,35,22.60
2018,09,27,16,36,22.60
2018,09,27,16,37,22.60
2018,09,27,16,38,22.70
2018,09,27,16,39,22.70
2018,09,27,16,40,22.70
2018,09,27,16,41,22.70
2018,09,27,16,42,22.70
2018,09,27,16,43,22.70
2018,09,27,16,44,22.70
2018,09,27,16,45,22.70
2018,09,27,16,46,22.80
2018,09,27,16,47,22.80
2018,09,27,16,48,22.80
2018,09,27,16,49,22.90
2018,09,27,16,50,22.90
2018,09,27,16,51,22.90
2018,09,27,16,52,22.90
2018,09,27,16,53,23.00
2018,09,27,16,54,23.00
2018,09,27,16,55,22.90
2018,09,27,16,56,22.90
2018,09,27,16,57,22.80
2018,09,27,16,58,22.70
2018,09,27,16,59,22.60
2018,09,27,17,00,22.50
2018,09,27,17,01,22.40
2018,09,27,17,02,22.40
2018,09,27,17,03,22.40
2018,09,27,17,04,22.40
2018,09,27,17,05,22.40
2018,09,27,17,06,22.30
2018,09,27,17,07,22.30
2018,09,27,17,08,22.30
2018,09,27,17,09,22.30
2018,09,27,17,10,22.30
2018,09,27,17,11,22.30
2018,09,27,17,12,22.30
2018,09,27,17,13,22.20
2018,09,27,17,14,22.20
2018,09,27,17,15,22.20
2018,09,27,17,16,22.10
2018,09,27,17,17,22.10
2018,09,27,17,18,22.10
2018,09,27,17,19,22.00
2018,09,27,17,20,22.00
2018,09,27,17,21,21.90
2018,09,27,17,22,21.90
2018,09,27,17,23,21.90
2018,09,27,17,24,21.80
2018,09,27,17,25,21.80